マクノート彗星

350P/McNaught (2018)

English version
Home page
Updated on June 25, 2018

---------------------------------------------------------------------

・ プロフィール

符号 350P/2017 B2
検出日 2017年1月26日
検出光度 22.5等
検出者 J. V. Scotti (Spacewatch, Kitt Peak)

・ 軌道要素

Epoch 2018 Feb. 11.0 TT = JDT 2458160.5
T 2018 Jan. 29.31348 TT                                 MPCW
q   3.7507605            (2000.0)            P               Q
n   0.11768180     Peri.  146.70980     -0.84178661     +0.52705856
a   4.1241062      Node    65.52107     -0.51902435     -0.73087009
e   0.0905277      Incl.    7.36318     -0.14835440     -0.43363370
P   8.38
From 119 observations 2005 Nov. 1-2018 May 19, mean residual 0".6.

・ 光度変化

        m1 = 13.5 + 5 logΔ + 10.0 log r

        ※ 灰色の曲線は、m1 = 10.2 + 5 logΔ + 10.0 log r の光度曲線です。

---------------------------------------------------------------------

軌道要素はM.P.E.C. 2018-K95に掲載されたものです。
光度グラフはComet for Windowsで作成したものです。

---------------------------------------------------------------------

Copyright(C) Seiichi Yoshida (comet@aerith.net). All rights reserved.